Zurück zum Katalog

STARLINK-3329

AktivKommunikationVLEO
NORAD 50827·PAYLOAD·🇺🇸 United States

Gestartet Jan 6, 2022 von Cape Canaveral Space Force Station

Loading…

Nächste Überflüge (nächste 24 Stunden)

TLE

AktuellSource: CelesTrak SupGP

Epoche: Sep 14, 2026, 21:52 UTC

1 50827C 22001AA  26257.91159722  .00005823  00000+0  17209-3 0  2571
2 50827  53.1603  27.4980 0001181  78.8627 297.7689 15.34376700    16

Verfolge STARLINK-3329 in Echtzeit mit AllMySat

Download on the App Store